When you browse on this site, cookies collect data to enhance your experience and personalize the content and advertising you see.
Visit our Privacy Policy to learn more. By continuing to use the site, you agree to this use of cookies and data.
  • In Deutschland
  • Länderverzeichnis
  • Für 7 Tage
  • Wassertemperatur
  • Satellitenkarten
  • Wetterkarte
  • Widgets
  • user-avatar
    Anmelden

    Stündliche Wetter Razdolnyy

    Heute, 18 November, Sonntag

    Zeit Temperatur Niederschläge Wind Luftdruck Luftfeuchtigkeit
    00:00 -2°C° 0 mm 2 m/S 758 mmHg 88%
    01:00 -2°C° 0 mm 2 m/S 758 mmHg 89%
    02:00 -2°C° 0 mm 2 m/S 758 mmHg 89%
    03:00 -2°C° 0 mm 2 m/S 757 mmHg 90%
    04:00 -3°C° 0 mm 2 m/S 757 mmHg 89%
    05:00 -3°C° 0 mm 2 m/S 757 mmHg 89%
    06:00 -3°C° 0 mm 2 m/S 757 mmHg 89%
    07:00 -2°C° 0 mm 2 m/S 757 mmHg 88%
    08:00 0°C° 0 mm 1 m/S 757 mmHg 87%
    09:00 0°C° 0 mm 1 m/S 756 mmHg 87%
    10:00 +1°C° 0 mm 1 m/S 756 mmHg 86%
    11:00 +2°C° 0 mm 1 m/S 756 mmHg 86%
    12:00 +2°C° 0 mm 1 m/S 756 mmHg 86%
    13:00 +3°C° 0 mm 1 m/S 756 mmHg 86%
    14:00 +3°C° 0 mm 1 m/S 756 mmHg 87%
    15:00 +3°C° 0 mm 1 m/S 756 mmHg 87%
    16:00 +2°C° 0 mm 1 m/S 756 mmHg 87%
    17:00 +2°C° 0 mm 1 m/S 756 mmHg 87%
    18:00 +1°C° 0 mm 1 m/S 756 mmHg 87%
    19:00 +1°C° 0 mm 1 m/S 756 mmHg 86%
    20:00 +1°C° 0 mm 1 m/S 756 mmHg 86%
    21:00 +1°C° 0 mm 1 m/S 756 mmHg 85%
    22:00 +1°C° 0 mm 1 m/S 756 mmHg 84%
    23:00 -1°C° 0 mm 2 m/S 756 mmHg 83%

    Morgen, 19 November, Montag

    Zeit Temperatur Niederschläge Wind Luftdruck Luftfeuchtigkeit
    00:00 -1°C° 0 mm 2 m/S 756 mmHg 82%
    01:00 -1°C° 0 mm 2 m/S 756 mmHg 81%
    02:00 -1°C° 0 mm 2 m/S 756 mmHg 80%
    03:00 -1°C° 0 mm 2 m/S 756 mmHg 79%
    04:00 -1°C° 0 mm 2 m/S 756 mmHg 78%
    05:00 +1°C° 0 mm 2 m/S 756 mmHg 77%
    06:00 0°C° 0 mm 3 m/S 756 mmHg 76%
    07:00 0°C° 0 mm 3 m/S 757 mmHg 75%
    08:00 0°C° 0 mm 3 m/S 757 mmHg 74%
    09:00 +1°C° 0 mm 3 m/S 757 mmHg 73%
    10:00 0°C° 0 mm 4 m/S 757 mmHg 73%
    11:00 +1°C° 0 mm 4 m/S 757 mmHg 72%
    12:00 +3°C° 0 mm 4 m/S 757 mmHg 71%
    13:00 +3°C° 0 mm 4 m/S 756 mmHg 72%
    14:00 +4°C° 0 mm 4 m/S 756 mmHg 72%
    15:00 +4°C° 0 mm 4 m/S 756 mmHg 72%
    16:00 +3°C° 0 mm 4 m/S 756 mmHg 76%
    17:00 +1°C° 0 mm 4 m/S 756 mmHg 80%
    18:00 0°C° 0 mm 4 m/S 756 mmHg 83%
    19:00 0°C° 0 mm 4 m/S 755 mmHg 84%
    20:00 0°C° 0 mm 4 m/S 755 mmHg 84%
    21:00 +1°C° 0 mm 5 m/S 755 mmHg 85%
    22:00 +1°C° 0 mm 5 m/S 755 mmHg 84%
    23:00 +1°C° 0 mm 5 m/S 755 mmHg 82%

    übermorgen, 20 November, Dienstag

    Zeit Temperatur Niederschläge Wind Luftdruck Luftfeuchtigkeit
    00:00 +1°C° 0 mm 5 m/S 755 mmHg 81%
    01:00 +1°C° 0 mm 5 m/S 754 mmHg 82%
    02:00 +1°C° 0 mm 5 m/S 754 mmHg 83%
    03:00 +1°C° 0 mm 5 m/S 754 mmHg 84%
    04:00 +1°C° 0.1 mm 5 m/S 754 mmHg 86%
    05:00 +1°C° 0.1 mm 5 m/S 753 mmHg 87%
    06:00 +1°C° 0.1 mm 5 m/S 753 mmHg 88%
    07:00 +1°C° 1 mm 5 m/S 753 mmHg 89%
    08:00 +1°C° 1 mm 5 m/S 753 mmHg 90%
    09:00 +1°C° 1 mm 5 m/S 753 mmHg 91%
    10:00 +1°C° 0.9 mm 5 m/S 752 mmHg 90%
    11:00 +2°C° 0.9 mm 5 m/S 752 mmHg 89%
    12:00 +2°C° 0.9 mm 5 m/S 752 mmHg 89%
    13:00 +2°C° 0.8 mm 5 m/S 751 mmHg 90%
    14:00 +2°C° 0.8 mm 5 m/S 751 mmHg 91%
    15:00 +2°C° 0.8 mm 5 m/S 750 mmHg 91%
    16:00 +2°C° 0.1 mm 5 m/S 750 mmHg 92%
    17:00 +2°C° 0.1 mm 5 m/S 750 mmHg 92%
    18:00 +3°C° 0.1 mm 5 m/S 750 mmHg 93%
    19:00 +4°C° 0.5 mm 4 m/S 750 mmHg 94%
    20:00 +4°C° 0.5 mm 3 m/S 750 mmHg 94%
    21:00 +4°C° 0.5 mm 3 m/S 750 mmHg 95%
    22:00 +4°C° 0.4 mm 3 m/S 750 mmHg 96%
    23:00 +4°C° 0.4 mm 3 m/S 750 mmHg 96%

    21 November, Mittwoch

    Zeit Temperatur Niederschläge Wind Luftdruck Luftfeuchtigkeit
    00:00 +4°C° 0.4 mm 3 m/S 750 mmHg 97%
    01:00 +4°C° 0.1 mm 3 m/S 750 mmHg 96%
    02:00 +3°C° 0.1 mm 3 m/S 750 mmHg 95%
    03:00 +3°C° 0.1 mm 3 m/S 751 mmHg 94%
    04:00 +3°C° 0 mm 4 m/S 751 mmHg 92%
    05:00 +1°C° 0 mm 4 m/S 751 mmHg 90%
    06:00 +1°C° 0 mm 4 m/S 752 mmHg 88%
    07:00 +1°C° 0 mm 4 m/S 752 mmHg 86%
    08:00 +1°C° 0 mm 4 m/S 753 mmHg 84%
    09:00 +1°C° 0 mm 4 m/S 753 mmHg 81%
    10:00 +1°C° 0 mm 4 m/S 753 mmHg 78%
    11:00 +2°C° 0 mm 3 m/S 754 mmHg 74%
    12:00 +3°C° 0 mm 3 m/S 754 mmHg 70%
    13:00 +3°C° 0 mm 3 m/S 754 mmHg 69%
    14:00 +3°C° 0 mm 3 m/S 753 mmHg 67%
    15:00 +3°C° 0 mm 3 m/S 753 mmHg 65%
    16:00 +3°C° 0 mm 3 m/S 753 mmHg 67%
    17:00 +2°C° 0 mm 3 m/S 754 mmHg 69%
    18:00 +2°C° 0 mm 3 m/S 754 mmHg 71%
    19:00 +1°C° 0 mm 3 m/S 754 mmHg 70%
    20:00 +1°C° 0 mm 3 m/S 754 mmHg 70%
    21:00 +1°C° 0 mm 3 m/S 754 mmHg 70%
    22:00 0°C° 0 mm 3 m/S 754 mmHg 71%
    23:00 0°C° 0 mm 3 m/S 754 mmHg 71%

    22 November, Donnerstag

    Zeit Temperatur Niederschläge Wind Luftdruck Luftfeuchtigkeit
    00:00 0°C° 0 mm 3 m/S 753 mmHg 72%
    01:00 -1°C° 0 mm 3 m/S 753 mmHg 73%
    02:00 -1°C° 0 mm 3 m/S 753 mmHg 74%
    03:00 -1°C° 0 mm 3 m/S 753 mmHg 75%
    04:00 -2°C° 0 mm 3 m/S 753 mmHg 76%
    05:00 -2°C° 0 mm 2 m/S 753 mmHg 76%
    06:00 -2°C° 0 mm 2 m/S 753 mmHg 77%
    07:00 -2°C° 0 mm 2 m/S 753 mmHg 75%
    08:00 -1°C° 0 mm 2 m/S 753 mmHg 73%
    09:00 -1°C° 0 mm 2 m/S 753 mmHg 72%
    10:00 +1°C° 0 mm 2 m/S 753 mmHg 67%
    11:00 +2°C° 0 mm 2 m/S 753 mmHg 63%
    12:00 +3°C° 0 mm 2 m/S 753 mmHg 59%
    13:00 +3°C° 0 mm 2 m/S 753 mmHg 59%
    14:00 +3°C° 0 mm 2 m/S 752 mmHg 59%
    15:00 +3°C° 0 mm 2 m/S 752 mmHg 59%
    16:00 +2°C° 0 mm 2 m/S 752 mmHg 64%
    17:00 +1°C° 0 mm 2 m/S 752 mmHg 70%
    18:00 -1°C° 0 mm 2 m/S 753 mmHg 75%
    19:00 -2°C° 0 mm 3 m/S 753 mmHg 77%
    20:00 -2°C° 0 mm 3 m/S 753 mmHg 79%
    21:00 -4°C° 0 mm 3 m/S 753 mmHg 81%
    22:00 -4°C° 0 mm 3 m/S 753 mmHg 82%
    23:00 -4°C° 0 mm 3 m/S 753 mmHg 83%

    23 November, Freitag

    Zeit Temperatur Niederschläge Wind Luftdruck Luftfeuchtigkeit
    00:00 -4°C° 0 mm 3 m/S 754 mmHg 84%
    01:00 -4°C° 0 mm 3 m/S 754 mmHg 83%
    02:00 -4°C° 0 mm 3 m/S 754 mmHg 81%
    03:00 -4°C° 0 mm 3 m/S 754 mmHg 80%
    04:00 -4°C° 0 mm 3 m/S 754 mmHg 80%
    05:00 -5°C° 0 mm 3 m/S 755 mmHg 80%
    06:00 -5°C° 0 mm 3 m/S 755 mmHg 81%
    07:00 -4°C° 0 mm 3 m/S 756 mmHg 79%
    08:00 -4°C° 0 mm 3 m/S 756 mmHg 76%
    09:00 -2°C° 0 mm 3 m/S 757 mmHg 74%
    10:00 -1°C° 0 mm 3 m/S 757 mmHg 69%
    11:00 0°C° 0 mm 3 m/S 758 mmHg 64%
    12:00 0°C° 0 mm 4 m/S 758 mmHg 58%
    13:00 +1°C° 0 mm 3 m/S 758 mmHg 58%
    14:00 +1°C° 0 mm 3 m/S 758 mmHg 58%
    15:00 +1°C° 0 mm 3 m/S 759 mmHg 57%
    16:00 0°C° 0 mm 3 m/S 759 mmHg 61%
    17:00 -2°C° 0 mm 3 m/S 759 mmHg 65%
    18:00 -3°C° 0 mm 2 m/S 760 mmHg 69%
    19:00 -3°C° 0 mm 2 m/S 760 mmHg 69%
    20:00 -4°C° 0 mm 3 m/S 760 mmHg 68%
    21:00 -4°C° 0 mm 3 m/S 760 mmHg 68%
    22:00 -5°C° 0 mm 3 m/S 760 mmHg 66%
    23:00 -5°C° 0 mm 3 m/S 760 mmHg 65%
    Mehr zeigen